Providence, RI

8:00 AM EST on January 21, 2018 (GMT -0500)
Green State

Weather History for KPVD - March, 2013

Change the Weather History Date:

Tuesday, March 5, 2013

  Actual Average Record
Temperature  
Mean Temperature 39 °F 36 °F  
Max Temperature 47 °F 44 °F 65 °F (1979)
Min Temperature 31 °F 27 °F 3 °F (1948)
Degree Days  
Heating Degree Days 26 29  
Month to date heating degree days 131 149  
Since 1 July heating degree days 3952 4211  
Cooling Degree Days 0 0  
Month to date cooling degree days 0 0  
Year to date cooling degree days 0 0  
Moisture  
Dew Point 25 °F    
Average Humidity 64    
Maximum Humidity 82    
Minimum Humidity 45    
Precipitation  
Precipitation 0.00 in 0.15 in 1.53 in (2001)
Month to date precipitation T 0.72  
Year to date precipitation 6.96 7.87  
Snow  
Snow 0.00 in 0.30 in 6.30 in (2015)
Month to date snowfall T 1.3  
Since 1 July snowfall 41.4 29.0  
Snow Depth 0.00 in    
Sea Level Pressure  
Sea Level Pressure 29.95 in    
Wind  
Wind Speed 9 mph (North)    
Max Wind Speed 14 mph    
Max Gust Speed 23 mph    
Visibility 10 miles    
Events      
T = Trace of Precipitation, MM = Missing Value Source: NWS Daily Summary

Daily Weather History Graph

Daily Weather History Graph

Search for Another Location

Airport or City:

Trip Planner

Search our weather history database for the weather conditions in past years. The results will help you decide how hot, cold, wet, or windy it might be!

Date:

Astronomy

Mar. 05, 2013 Rise Set
Actual Time 6:13 AM EST 5:41 PM EST
Civil Twilight 5:46 AM EST 6:08 PM EST
Nautical Twilight 5:13 AM EST 6:41 PM EST
Astronomical Twilight 4:41 AM EST 7:13 PM EST
Moon 1:26 AM EST (3/5) 11:13 AM EST (3/5)
Length of Visible Light 12h 22m
Length of Day
11h 27m
Last Quarter, 41% of the Moon is Illuminated
Mar 5
Last Quarter
Mar 11
New
Mar 19
First Quarter
Mar 27
Full
Apr 3
Last Quarter

Hourly Weather History & Observations

Time (EST) Temp. Windchill Dew Point Humidity Pressure Visibility Wind Dir Wind Speed Gust Speed Precip Events Conditions
12:51 AM 33.1 °F 25.5 °F 21.0 °F 61% 29.78 in 10.0 mi NW 9.2 mph 21.9 mph N/A   Overcast
2:51 AM 32.0 °F 22.1 °F 19.9 °F 61% 29.80 in 10.0 mi NW 13.8 mph 21.9 mph N/A   Overcast
3:51 AM 32.0 °F 23.6 °F 19.9 °F 61% 29.82 in 10.0 mi NW 10.4 mph 17.3 mph N/A   Overcast
4:51 AM 30.9 °F 22.2 °F 19.9 °F 64% 29.85 in 10.0 mi NW 10.4 mph - N/A   Overcast
5:51 AM 30.9 °F 21.2 °F 19.9 °F 64% 29.88 in 10.0 mi NW 12.7 mph - N/A   Mostly Cloudy
6:51 AM 32.0 °F 23.6 °F 19.9 °F 61% 29.89 in 10.0 mi NW 10.4 mph - N/A   Mostly Cloudy
7:51 AM 34.0 °F 27.2 °F 21.0 °F 59% 29.92 in 10.0 mi NW 8.1 mph - N/A   Mostly Cloudy
8:51 AM 37.4 °F 30.8 °F 21.2 °F 52% 29.93 in 10.0 mi NW 9.2 mph 18.4 mph N/A   Mostly Cloudy
9:48 AM 42.8 °F 35.4 °F 24.8 °F 49% 29.93 in 10.0 mi North 15.0 mph 21.9 mph N/A   Mostly Cloudy
9:51 AM 41.0 °F 33.1 °F 24.1 °F 51% 29.94 in 10.0 mi North 15.0 mph 20.7 mph N/A   Mostly Cloudy
10:51 AM 42.1 °F 34.5 °F 25.0 °F 51% 29.94 in 10.0 mi NNE 15.0 mph 19.6 mph N/A   Mostly Cloudy
11:51 AM 43.0 °F 36.8 °F 25.0 °F 49% 29.94 in 10.0 mi NNE 11.5 mph - N/A   Mostly Cloudy
12:51 PM 46.0 °F 41.4 °F 26.1 °F 46% 29.94 in 10.0 mi North 9.2 mph - N/A   Scattered Clouds
1:51 PM 46.9 °F - 27.0 °F 46% 29.94 in 10.0 mi NNE 8.1 mph - N/A   Mostly Cloudy
2:51 PM 45.0 °F 38.9 °F 26.1 °F 48% 29.96 in 10.0 mi NNE 12.7 mph - N/A   Mostly Cloudy
3:51 PM 44.1 °F 38.6 °F 26.1 °F 49% 29.99 in 10.0 mi NE 10.4 mph - N/A   Mostly Cloudy
4:51 PM 44.1 °F 40.8 °F 26.1 °F 49% 30.00 in 10.0 mi NNE 5.8 mph - N/A   Mostly Cloudy
5:51 PM 42.1 °F 36.6 °F 27.0 °F 55% 30.01 in 10.0 mi ENE 9.2 mph - N/A   Mostly Cloudy
6:51 PM 39.0 °F 32.8 °F 28.9 °F 67% 30.03 in 10.0 mi NE 9.2 mph - N/A   Mostly Cloudy
7:51 PM 37.9 °F 32.1 °F 28.9 °F 70% 30.04 in 10.0 mi ENE 8.1 mph - N/A   Scattered Clouds
8:51 PM 36.0 °F 31.1 °F 30.0 °F 79% 30.04 in 10.0 mi NE 5.8 mph - N/A   Partly Cloudy
9:51 PM 35.1 °F 31.0 °F 28.9 °F 78% 30.04 in 10.0 mi NNE 4.6 mph - N/A   Partly Cloudy
10:51 PM 37.0 °F 34.5 °F 30.9 °F 79% 30.06 in 10.0 mi NW 3.5 mph - N/A   Scattered Clouds
11:51 PM 34.0 °F 31.0 °F 30.0 °F 85% 30.03 in 10.0 mi North 3.5 mph - N/A   Partly Cloudy